N9UMJ-12 Weather Reports


Display with metric or nautical units.
time (UTC)temp
F
wind
direction
speed
MPH
gust
MPH
rain 1hr
in
rain 24hr
in
rain mn
in
humidity
%
barometer
mb
20260509185016 72 202 3.0 8.0 0.00 0.16 0.14 63 1009.8
20260509184019 71 245 2.0 6.0 0.00 0.16 0.14 64 1009.8
20260509183019 70 255 2.0 5.0 0.00 0.16 0.14 68 1009.9
20260509182019 69 287 2.0 6.0 0.00 0.16 0.14 69 1010.0
20260509181019 70 257 3.0 6.0 0.00 0.16 0.14 68 1010.1
20260509180016 69 230 2.0 5.0 0.00 0.16 0.14 70 1010.2
20260509175017 69 279 2.0 5.0 0.00 0.16 0.14 72 1010.3
20260509174017 69 212 3.0 11.0 0.00 0.16 0.14 71 1010.3
20260509173037 69 289 2.0 6.0 0.00 0.16 0.14 72 1010.3
20260509172020 68 181 2.0 6.0 0.00 0.16 0.14 74 1010.3
20260509171017 68 273 3.0 8.0 0.00 0.16 0.14 74 1010.4
20260509170017 67 258 2.0 6.0 0.00 0.16 0.14 74 1010.5
20260509165018 67 278 3.0 6.0 0.00 0.16 0.14 75 1010.4
20260509164018 67 270 2.0 6.0 0.00 0.16 0.14 75 1010.4
20260509163018 66 275 2.0 5.0 0.00 0.16 0.14 78 1010.4
20260509162018 66 281 2.0 6.0 0.00 0.16 0.14 77 1010.3
20260509161018 66 301 2.0 6.0 0.00 0.16 0.14 78 1010.2
20260509160018 65 265 3.0 6.0 0.00 0.16 0.14 78 1010.2
20260509155019 67 281 3.0 9.0 0.00 0.16 0.14 76 1010.2
20260509154019 65 244 1.0 4.0 0.00 0.16 0.14 81 1010.3
20260509153019 65 233 2.0 6.0 0.00 0.16 0.14 80 1010.1
20260509152019 65 184 2.0 6.0 0.00 0.16 0.14 78 1010.1
20260509151016 64 231 2.0 6.0 0.00 0.16 0.14 81 1010.0
20260509150016 64 222 2.0 6.0 0.00 0.16 0.14 82 1010.0
20260509145017 63 266 2.0 5.0 0.00 0.16 0.14 85 1010.1
20260509144020 62 184 3.0 8.0 0.00 0.16 0.14 85 1010.1
20260509143040 62 167 4.0 7.0 0.00 0.16 0.14 87 1010.1
20260509142017 61 203 2.0 8.0 0.00 0.16 0.14 90 1009.9
20260509141018 60 263 1.0 3.0 0.00 0.16 0.14 93 1010.0
20260509140018 60 166 4.0 7.0 0.00 0.16 0.14 93 1009.9
20260509135018 59 148 2.0 7.0 0.00 0.16 0.14 95 1009.8
20260509134018 57 157 3.0 6.0 0.00 0.16 0.14 96 1009.8
20260509133018 57 158 0.0 2.0 0.00 0.16 0.14 97 1009.8
20260509132021 56 173 3.0 5.0 0.00 0.16 0.14 97 1009.7
20260509131038 56 164 2.0 4.0 0.00 0.16 0.14 98 1009.7
20260509130018 56 121 1.0 3.0 0.00 0.16 0.14 99 1009.7
20260509125019 56 173 1.0 4.0 0.00 0.16 0.14 99 1009.8
20260509124018 56 0.0 0.0 0.00 0.16 0.14 99 1009.7
20260509123019 56 8 0.0 0.0 0.00 0.16 0.14 99 1009.7
20260509122019 56 163 0.0 2.0 0.00 0.16 0.14 99 1009.6
20260509121019 55 165 2.0 3.0 0.00 0.16 0.14 99 1009.5
20260509120019 55 189 1.0 2.0 0.00 0.16 0.14 99 1009.3
20260509115020 55 188 1.0 4.0 0.00 0.16 0.14 99 1009.0
20260509114039 55 183 1.0 2.0 0.00 0.16 0.14 99 1009.0
20260509113040 55 192 1.0 4.0 0.00 0.16 0.14 99 1008.8
20260509112020 55 185 3.0 3.0 0.00 0.16 0.14 99 1008.8
20260509111020 55 200 1.0 3.0 0.00 0.16 0.14 99 1008.7
20260509110017 55 179 3.0 6.0 0.00 0.16 0.14 99 1008.5
20260509105020 55 180 1.0 3.0 0.00 0.16 0.14 99 1008.5
20260509104021 55 65 0.0 1.0 0.00 0.16 0.14 99 1008.5
20260509103021 55 45 1.0 2.0 0.00 0.16 0.14 99 1008.3
20260509102021 55 153 0.0 1.0 0.00 0.16 0.14 99 1008.4
20260509101021 55 144 1.0 3.0 0.00 0.16 0.14 99 1008.6
20260509100042 55 184 3.0 5.0 0.00 0.16 0.14 99 1008.9
20260509095021 55 182 1.0 3.0 0.01 0.16 0.14 99 1008.9
20260509094021 55 189 1.0 2.0 0.07 0.16 0.14 99 1008.9
20260509093022 55 159 1.0 3.0 0.08 0.16 0.14 99 1008.9
20260509092022 55 203 2.0 4.0 0.08 0.16 0.14 99 1009.1
20260509091022 55 160 2.0 5.0 0.09 0.16 0.14 99 1008.9
20260509090022 55 31 3.0 5.0 0.10 0.16 0.13 99 1008.7
20260509085022 55 78 2.0 4.0 0.10 0.15 0.13 99 1009.7
20260509084022 55 277 1.0 2.0 0.04 0.09 0.06 99 1010.0
20260509083102 55 173 1.0 2.0 0.04 0.08 0.06 99 1009.6
20260509082022 55 301 1.0 2.0 0.04 0.08 0.06 99 1009.7
20260509081022 55 123 1.0 2.0 0.03 0.07 0.05 99 1009.8
20260509080043 55 41 0.0 1.0 0.02 0.06 0.04 99 1009.8
20260509075023 55 87 0.0 2.0 0.02 0.05 0.03 99 1009.6
20260509074023 55 24 1.0 2.0 0.02 0.04 0.02 99 1009.6
20260509073043 55 35 1.0 2.0 0.02 0.04 0.02 99 1009.7
20260509072024 55 31 2.0 3.0 0.02 0.04 0.02 99 1009.8
20260509071024 55 41 1.0 1.0 0.02 0.04 0.02 99 1009.9
20260509070024 55 27 1.0 2.0 0.01 0.04 0.01 98 1010.3
20260509065024 55 37 0.0 1.0 0.01 0.03 0.01 98 1010.4
20260509064024 55 47 1.0 2.0 0.01 0.03 0.01 98 1010.4
20260509063039 55 347 2.0 3.0 0.00 0.03 0.00 98 1010.5
20260509062016 55 10 2.0 3.0 0.00 0.02 0.00 98 1010.3
20260509061016 55 37 2.0 3.0 0.00 0.02 0.00 98 1010.2
20260509060017 55 18 2.0 3.0 0.00 0.02 0.00 98 1010.3
20260509055020 55 16 1.0 2.0 0.00 0.02 0.00 98 1010.4
20260509054017 55 45 0.0 2.0 0.00 0.02 0.00 98 1010.5
20260509053017 55 79 1.0 3.0 0.00 0.02 0.00 98 1010.5
20260509052017 55 31 0.0 1.0 0.00 0.02 0.00 98 1010.7
20260509051018 55 21 1.0 2.0 0.00 0.02 0.00 98 1010.6
20260509050038 55 32 2.0 3.0 0.00 0.02 0.00 98 1010.5
20260509045018 55 30 0.0 2.0 0.00 0.02 0.00 98 1010.5
20260509044018 55 11 1.0 3.0 0.00 0.02 0.00 98 1010.5
20260509043018 56 25 0.0 3.0 0.00 0.02 0.00 98 1010.4
20260509042038 56 38 1.0 2.0 0.00 0.02 0.00 97 1010.3
20260509041019 56 28 1.0 2.0 0.00 0.02 0.00 97 1010.4
20260509040016 56 31 0.0 1.0 0.00 0.02 0.00 97 1010.5
20260509035019 56 55 0.0 2.0 0.00 0.02 0.02 97 1010.6
20260509034019 56 46 0.0 2.0 0.00 0.02 0.02 97 1010.5
20260509033019 56 353 1.0 2.0 0.00 0.02 0.02 97 1010.5
20260509032019 56 35 1.0 2.0 0.01 0.02 0.02 97 1010.4
20260509031036 56 52 0.0 2.0 0.01 0.02 0.02 96 1010.5
20260509030019 56 15 1.0 3.0 0.01 0.02 0.02 96 1010.5
20260509025020 56 31 2.0 3.0 0.01 0.02 0.02 95 1010.4
20260509024037 57 25 2.0 3.0 0.01 0.02 0.02 95 1010.5
20260509023017 57 37 0.0 2.0 0.01 0.02 0.02 94 1010.6
20260509022017 57 44 0.0 2.0 0.01 0.02 0.02 93 1010.5
20260509021018 57 64 2.0 3.0 0.01 0.01 0.01 93 1010.6
20260509020018 57 47 1.0 2.0 0.01 0.01 0.01 92 1010.8
20260509015018 57 46 1.0 3.0 0.01 0.01 0.01 91 1010.6
20260509014018 58 34 2.0 5.0 0.01 0.01 0.01 89 1010.6
20260509013018 59 17 4.0 12.0 0.01 0.01 0.01 87 1010.7
20260509012018 61 33 6.0 10.0 0.01 0.01 0.01 80 1010.7
20260509011016 63 5 7.0 13.0 0.00 0.00 0.00 68 1010.6
20260509010059 65 354 1.0 2.0 0.00 0.00 0.00 63 1009.9
20260509005018 65 231 0.0 1.0 0.00 0.00 0.00 61 1009.8
20260509004019 65 158 1.0 3.0 0.00 0.00 0.00 60 1009.8
20260509003019 66 75 0.0 3.0 0.00 0.00 0.00 59 1009.7
20260509002016 66 189 1.0 3.0 0.00 0.00 0.00 59 1009.7
20260509001017 66 179 1.0 4.0 0.00 0.00 0.00 59 1009.8
20260509000019 67 166 1.0 3.0 0.00 0.00 0.00 58 1009.8
20260508235020 67 186 2.0 5.0 0.00 0.00 0.00 58 1009.9
20260508234017 67 165 1.0 5.0 0.00 0.00 0.00 58 1009.9
20260508233017 67 178 1.0 3.0 0.00 0.00 0.00 56 1010.0
20260508232017 67 171 1.0 4.0 0.00 0.00 0.00 56 1010.0
20260508231038 68 173 1.0 6.0 0.00 0.00 0.00 56 1010.1
20260508230040 68 181 1.0 3.0 0.00 0.00 0.00 54 1010.2
20260508225018 68 242 2.0 7.0 0.00 0.00 0.00 54 1010.3
20260508224018 68 187 3.0 10.0 0.00 0.00 0.00 54 1010.1
20260508223018 68 199 2.0 6.0 0.00 0.00 0.00 55 1010.2
20260508222018 69 222 3.0 11.0 0.00 0.00 0.00 53 1010.2
20260508221016 68 232 3.0 8.0 0.00 0.00 0.00 54 1010.2
20260508220020 68 237 2.0 7.0 0.00 0.00 0.00 54 1010.2
20260508215039 68 254 2.0 7.0 0.00 0.00 0.00 54 1010.2
20260508214019 68 239 2.0 6.0 0.00 0.00 0.00 54 1010.3
20260508213016 68 242 2.0 6.0 0.00 0.00 0.00 54 1010.3
20260508212016 69 219 5.0 9.0 0.00 0.00 0.00 53 1010.1
20260508211017 69 223 4.0 10.0 0.00 0.00 0.00 52 1010.2
20260508210020 70 198 5.0 13.0 0.00 0.00 0.00 52 1010.3
20260508205020 68 217 2.0 6.0 0.00 0.00 0.00 54 1010.4
20260508204037 68 241 2.0 6.0 0.00 0.00 0.00 53 1010.6
20260508203017 68 245 3.0 7.0 0.00 0.00 0.00 54 1010.7
20260508202017 69 244 3.0 7.0 0.00 0.00 0.00 53 1010.8
20260508201017 71 245 3.0 7.0 0.00 0.00 0.00 52 1010.9
20260508200018 71 263 3.0 6.0 0.00 0.00 0.00 52 1011.1
20260508195018 70 225 4.0 8.0 0.00 0.00 0.00 52 1011.3
20260508194018 70 190 6.0 15.0 0.00 0.00 0.00 53 1011.4
20260508193018 70 180 6.0 20.0 0.00 0.00 0.00 54 1011.6
20260508192018 70 209 4.0 11.0 0.00 0.00 0.00 54 1012.0
20260508191019 70 225 3.0 7.0 0.00 0.00 0.00 53 1012.2
20260508190018 70 194 3.0 13.0 0.00 0.00 0.00 54 1012.3